Location: Le Domaine
(47.0333°N, 76.5361°W)
Time: 05:52:08
(UTC-05:00)

S-56A Canister/Altair - Pass Details

Date: 26 November 2019
Orbit: 633 x 2499 km, 38.9° (Epoch: 10 December)

Event Time Altitude Azimuth Distance (km) Brightness Sun altitude
Rises 20:42:42 0° 274° (W) 4,481 12.2 -43.7°
Reaches altitude 10° 20:47:47 10° 252° (WSW) 3,064 11.0 -44.5°
Enters shadow 20:49:55 13° 236° (SW) 2,654 10.5 -44.9°
Maximum altitude 20:51:08 14° 224° (SW) 2,515 - -45.1°
Drops below altitude 10° 20:54:01 10° 195° (SSW) 2,550 - -45.5°
Sets 20:57:32 0° 169° (SSE) 3,230 - -46.1°
